Time,TemperatureF,DewpointF,PressureIn,WindDirection,WindDirectionDegrees,WindSpeedMPH,WindSpeedGustMPH,Humidity,HourlyPrecipIn,Conditions,Clouds,dailyrainin,SoftwareType,DateUTC
2013-07-11 00:01:00,72.5,72.7,29.84,South,180,5.6,10.5,100,0.00,,,0.00,Rainwise IP-100,2013-07-11 04:01:00,
2013-07-11 00:06:00,72.5,72.7,29.84,WSW,247,2.8,7.2,100,0.00,,,0.00,Rainwise IP-100,2013-07-11 04:06:00,
2013-07-11 00:11:00,72.5,72.7,29.84,SSW,202,4.2,8.9,100,0.00,,,0.00,Rainwise IP-100,2013-07-11 04:11:00,
2013-07-11 00:12:00,72.5,72.7,29.84,WSW,247,4.9,6.8,100,0.00,,,0.00,Rainwise IP-100,2013-07-11 04:12:00,
2013-07-11 00:17:00,72.4,72.3,29.84,SSW,202,4.9,6.8,100,0.00,,,0.00,Rainwise IP-100,2013-07-11 04:17:00,
2013-07-11 00:22:00,72.4,72.3,29.83,SSW,202,6.3,7.9,100,0.00,,,0.00,Rainwise IP-100,2013-07-11 04:22:00,
2013-07-11 00:27:00,72.5,72.7,29.83,West,270,5.8,8.2,100,0.00,,,0.00,Rainwise IP-100,2013-07-11 04:27:00,
2013-07-11 00:32:00,72.5,72.7,29.83,SSW,202,3.5,9.1,100,0.00,,,0.00,Rainwise IP-100,2013-07-11 04:32:00,
2013-07-11 00:37:00,72.4,72.3,29.83,SSW,202,3.5,7.2,100,0.00,,,0.00,Rainwise IP-100,2013-07-11 04:37:00,
2013-07-11 00:42:00,72.3,72.3,29.83,SW,225,7.7,17.3,100,0.00,,,0.00,Rainwise IP-100,2013-07-11 04:42:00,
2013-07-11 00:47:00,72.3,72.3,29.83,SW,225,3.0,8.2,100,0.00,,,0.00,Rainwise IP-100,2013-07-11 04:47:00,
2013-07-11 00:52:00,72.4,72.3,29.82,SSW,202,7.9,7.9,100,0.00,,,0.00,Rainwise IP-100,2013-07-11 04:52:00,
2013-07-11 00:57:00,72.5,72.7,29.82,SW,225,9.6,9.6,100,0.00,,,0.00,Rainwise IP-100,2013-07-11 04:57:00,
2013-07-11 01:02:00,72.6,72.7,29.83,WNW,292,3.3,10.7,100,0.00,,,0.00,Rainwise IP-100,2013-07-11 05:02:00,
2013-07-11 01:07:00,72.6,72.7,29.82,SW,225,9.6,10.3,100,0.00,,,0.00,Rainwise IP-100,2013-07-11 05:07:00,
2013-07-11 01:12:00,72.6,72.7,29.83,West,270,3.7,11.0,100,0.00,,,0.00,Rainwise IP-100,2013-07-11 05:12:00,
2013-07-11 01:17:00,72.5,72.7,29.83,WSW,247,2.3,9.1,100,0.00,,,0.00,Rainwise IP-100,2013-07-11 05:17:00,
2013-07-11 01:22:00,72.5,72.7,29.83,WSW,247,6.1,8.2,100,0.00,,,0.00,Rainwise IP-100,2013-07-11 05:22:00,
2013-07-11 01:27:00,72.5,72.7,29.82,WSW,247,3.3,7.5,100,0.00,,,0.00,Rainwise IP-100,2013-07-11 05:27:00,
2013-07-11 01:32:00,72.6,72.7,29.82,SW,225,2.8,10.0,100,0.00,,,0.00,Rainwise IP-100,2013-07-11 05:32:00,
2013-07-11 01:37:00,72.6,72.7,29.82,WSW,247,5.4,7.7,100,0.00,,,0.00,Rainwise IP-100,2013-07-11 05:37:00,
2013-07-11 01:42:00,72.5,72.7,29.82,SW,225,4.0,8.2,100,0.00,,,0.00,Rainwise IP-100,2013-07-11 05:42:00,
2013-07-11 01:47:00,72.5,72.7,29.82,SW,225,7.2,9.3,100,0.00,,,0.00,Rainwise IP-100,2013-07-11 05:47:00,
2013-07-11 01:52:00,72.5,72.7,29.82,SSW,202,2.8,8.9,100,0.00,,,0.00,Rainwise IP-100,2013-07-11 05:52:00,
2013-07-11 01:57:00,72.4,72.3,29.82,WSW,247,1.2,10.0,100,0.00,,,0.00,Rainwise IP-100,2013-07-11 05:57:00,
2013-07-11 02:02:00,72.3,72.3,29.82,WSW,247,3.3,9.1,100,0.00,,,0.00,Rainwise IP-100,2013-07-11 06:02:00,
2013-07-11 02:07:00,72.2,72.3,29.82,SSW,202,1.9,9.3,100,0.00,,,0.00,Rainwise IP-100,2013-07-11 06:07:00,
2013-07-11 02:12:00,72.1,72.0,29.82,SW,225,6.5,6.5,100,0.00,,,0.00,Rainwise IP-100,2013-07-11 06:12:00,
2013-07-11 02:17:00,72.1,72.0,29.82,SW,225,1.6,9.6,100,0.00,,,0.00,Rainwise IP-100,2013-07-11 06:17:00,
2013-07-11 02:22:00,72.1,72.0,29.81,WSW,247,3.7,9.6,100,0.00,,,0.00,Rainwise IP-100,2013-07-11 06:22:00,
2013-07-11 02:27:00,72.0,72.0,29.81,WSW,247,3.7,6.8,100,0.00,,,0.00,Rainwise IP-100,2013-07-11 06:27:00,
2013-07-11 02:32:00,71.9,72.0,29.81,WSW,247,4.4,7.2,100,0.00,,,0.00,Rainwise IP-100,2013-07-11 06:32:00,
2013-07-11 02:37:00,71.9,72.0,29.82,SSW,202,4.4,8.6,100,0.00,,,0.00,Rainwise IP-100,2013-07-11 06:37:00,
2013-07-11 02:42:00,71.8,71.7,29.82,SW,225,6.5,6.8,100,0.00,,,0.00,Rainwise IP-100,2013-07-11 06:42:00,
2013-07-11 02:47:00,71.6,71.7,29.82,SSW,202,2.1,9.3,100,0.00,,,0.00,Rainwise IP-100,2013-07-11 06:47:00,
2013-07-11 02:52:00,71.6,71.7,29.81,WSW,247,3.5,6.3,100,0.00,,,0.00,Rainwise IP-100,2013-07-11 06:52:00,
2013-07-11 02:57:00,71.5,71.7,29.82,WNW,292,2.8,8.2,100,0.00,,,0.00,Rainwise IP-100,2013-07-11 06:57:00,
2013-07-11 03:02:00,71.4,71.3,29.82,SSW,202,2.3,6.1,100,0.00,,,0.00,Rainwise IP-100,2013-07-11 07:02:00,
2013-07-11 03:07:00,71.4,71.3,29.82,SSW,202,8.2,8.2,100,0.00,,,0.00,Rainwise IP-100,2013-07-11 07:07:00,
2013-07-11 03:12:00,71.3,71.3,29.82,SSW,202,4.4,9.3,100,0.00,,,0.00,Rainwise IP-100,2013-07-11 07:12:00,
2013-07-11 03:17:00,71.2,71.3,29.82,South,180,4.2,7.5,100,0.00,,,0.00,Rainwise IP-100,2013-07-11 07:17:00,
2013-07-11 03:22:00,71.1,71.0,29.82,WSW,247,6.3,10.7,100,0.00,,,0.00,Rainwise IP-100,2013-07-11 07:22:00,
2013-07-11 03:27:00,71.0,71.0,29.82,WSW,247,3.5,7.5,100,0.00,,,0.00,Rainwise IP-100,2013-07-11 07:27:00,
2013-07-11 03:32:00,70.9,71.0,29.83,SSW,202,4.0,6.3,100,0.00,,,0.00,Rainwise IP-100,2013-07-11 07:32:00,
2013-07-11 03:37:00,70.9,71.0,29.82,West,270,1.2,8.9,100,0.00,,,0.00,Rainwise IP-100,2013-07-11 07:37:00,
2013-07-11 03:42:00,70.8,71.0,29.82,SW,225,1.6,5.1,100,0.00,,,0.00,Rainwise IP-100,2013-07-11 07:42:00,
2013-07-11 03:47:00,70.8,71.0,29.82,WSW,247,7.7,8.4,100,0.00,,,0.00,Rainwise IP-100,2013-07-11 07:47:00,
2013-07-11 03:52:00,70.8,71.0,29.82,SW,225,2.6,10.3,100,0.00,,,0.00,Rainwise IP-100,2013-07-11 07:52:00,
2013-07-11 03:57:00,70.9,71.0,29.82,WSW,247,2.1,7.7,100,0.00,,,0.00,Rainwise IP-100,2013-07-11 07:57:00,
2013-07-11 04:02:00,70.9,71.0,29.82,WSW,247,3.0,5.8,100,0.00,,,0.00,Rainwise IP-100,2013-07-11 08:02:00,
2013-07-11 04:07:00,70.9,71.0,29.82,WSW,247,2.6,7.9,100,0.00,,,0.00,Rainwise IP-100,2013-07-11 08:07:00,
2013-07-11 04:12:00,71.0,71.0,29.82,South,180,2.6,7.7,100,0.00,,,0.00,Rainwise IP-100,2013-07-11 08:12:00,
2013-07-11 04:17:00,71.0,71.0,29.82,SSW,202,6.3,8.6,100,0.00,,,0.00,Rainwise IP-100,2013-07-11 08:17:00,
2013-07-11 04:22:00,70.9,71.0,29.83,WSW,247,6.5,8.6,100,0.00,,,0.00,Rainwise IP-100,2013-07-11 08:22:00,
2013-07-11 04:27:00,70.8,71.0,29.82,South,180,2.1,8.2,100,0.00,,,0.00,Rainwise IP-100,2013-07-11 08:27:00,
2013-07-11 04:32:00,70.7,70.5,29.82,SSW,202,4.0,5.6,100,0.00,,,0.00,Rainwise IP-100,2013-07-11 08:32:00,
2013-07-11 04:37:00,70.7,70.5,29.81,SW,225,4.2,6.5,100,0.00,,,0.00,Rainwise IP-100,2013-07-11 08:37:00,
2013-07-11 04:42:00,70.7,70.5,29.82,SW,225,1.9,4.9,100,0.00,,,0.00,Rainwise IP-100,2013-07-11 08:42:00,
2013-07-11 04:47:00,70.7,70.5,29.82,WNW,292,4.2,4.7,100,0.00,,,0.00,Rainwise IP-100,2013-07-11 08:47:00,
2013-07-11 04:52:00,70.7,70.5,29.82,WSW,247,2.3,6.1,100,0.00,,,0.00,Rainwise IP-100,2013-07-11 08:52:00,
2013-07-11 04:57:00,70.7,70.5,29.82,WNW,292,0.0,4.9,100,0.00,,,0.00,Rainwise IP-100,2013-07-11 08:57:00,
2013-07-11 05:02:00,70.7,70.5,29.82,WSW,247,1.9,4.7,100,0.00,,,0.00,Rainwise IP-100,2013-07-11 09:02:00,
2013-07-11 05:07:00,70.7,70.5,29.82,SW,225,3.5,6.3,100,0.00,,,0.00,Rainwise IP-100,2013-07-11 09:07:00,
2013-07-11 05:12:00,70.7,70.5,29.82,WSW,247,2.1,7.0,100,0.00,,,0.00,Rainwise IP-100,2013-07-11 09:12:00,
2013-07-11 05:17:00,70.7,70.5,29.83,West,270,1.9,5.8,100,0.00,,,0.00,Rainwise IP-100,2013-07-11 09:17:00,
2013-07-11 05:22:00,70.7,70.5,29.82,SW,225,1.6,5.1,100,0.00,,,0.00,Rainwise IP-100,2013-07-11 09:22:00,
2013-07-11 05:27:00,70.8,71.0,29.82,SSW,202,3.0,5.8,100,0.00,,,0.00,Rainwise IP-100,2013-07-11 09:27:00,
2013-07-11 05:32:00,70.7,70.5,29.82,SSW,202,1.9,5.1,100,0.00,,,0.00,Rainwise IP-100,2013-07-11 09:32:00,
2013-07-11 05:37:00,70.7,70.5,29.83,SSW,202,3.3,5.8,100,0.00,,,0.00,Rainwise IP-100,2013-07-11 09:37:00,
2013-07-11 05:42:00,70.7,70.5,29.83,SSW,202,3.5,4.9,100,0.00,,,0.00,Rainwise IP-100,2013-07-11 09:42:00,
2013-07-11 05:47:00,70.7,70.5,29.83,SSW,202,5.1,5.8,100,0.00,,,0.00,Rainwise IP-100,2013-07-11 09:47:00,
2013-07-11 05:52:00,70.8,71.0,29.82,SW,225,5.4,6.3,100,0.00,,,0.00,Rainwise IP-100,2013-07-11 09:52:00,
2013-07-11 05:57:00,70.8,71.0,29.82,SSW,202,5.1,8.4,100,0.00,,,0.00,Rainwise IP-100,2013-07-11 09:57:00,
2013-07-11 06:02:00,70.9,71.0,29.83,WSW,247,3.0,8.2,100,0.00,,,0.00,Rainwise IP-100,2013-07-11 10:02:00,
2013-07-11 06:07:00,71.0,71.0,29.84,SW,225,5.8,7.5,100,0.00,,,0.00,Rainwise IP-100,2013-07-11 10:07:00,
2013-07-11 06:12:00,71.1,71.0,29.83,WSW,247,3.5,8.4,100,0.00,,,0.00,Rainwise IP-100,2013-07-11 10:12:00,
2013-07-11 06:17:00,71.1,71.0,29.84,SSW,202,6.5,7.0,100,0.00,,,0.00,Rainwise IP-100,2013-07-11 10:17:00,
2013-07-11 06:22:00,71.1,71.0,29.84,SSW,202,9.8,9.8,100,0.00,,,0.00,Rainwise IP-100,2013-07-11 10:22:00,
2013-07-11 06:27:00,71.1,71.0,29.84,South,180,4.4,9.8,100,0.00,,,0.00,Rainwise IP-100,2013-07-11 10:27:00,
2013-07-11 06:32:00,71.2,71.3,29.84,South,180,4.7,8.2,100,0.00,,,0.00,Rainwise IP-100,2013-07-11 10:32:00,
2013-07-11 06:37:00,71.3,71.3,29.84,SSW,202,7.7,10.0,100,0.00,,,0.00,Rainwise IP-100,2013-07-11 10:37:00,
2013-07-11 06:42:00,71.4,71.3,29.84,SW,225,7.2,10.0,100,0.00,,,0.00,Rainwise IP-100,2013-07-11 10:42:00,
2013-07-11 06:47:00,71.5,71.7,29.84,South,180,3.7,10.3,100,0.00,,,0.00,Rainwise IP-100,2013-07-11 10:47:00,
2013-07-11 06:52:00,71.6,71.7,29.84,SSW,202,0.0,9.3,100,0.00,,,0.00,Rainwise IP-100,2013-07-11 10:52:00,
2013-07-11 06:57:00,71.7,71.7,29.84,South,180,1.9,10.0,100,0.00,,,0.00,Rainwise IP-100,2013-07-11 10:57:00,
2013-07-11 07:02:00,71.8,71.7,29.84,SW,225,3.5,10.5,100,0.00,,,0.00,Rainwise IP-100,2013-07-11 11:02:00,
2013-07-11 07:07:00,72.0,72.0,29.84,SW,225,5.8,9.3,100,0.00,,,0.00,Rainwise IP-100,2013-07-11 11:07:00,
2013-07-11 07:12:00,72.1,72.0,29.84,West,270,4.0,11.4,100,0.00,,,0.00,Rainwise IP-100,2013-07-11 11:12:00,
2013-07-11 07:17:00,72.1,72.0,29.84,WSW,247,5.4,9.6,100,0.00,,,0.00,Rainwise IP-100,2013-07-11 11:17:00,
2013-07-11 07:22:00,72.2,72.3,29.84,West,270,6.5,7.7,100,0.00,,,0.00,Rainwise IP-100,2013-07-11 11:22:00,
2013-07-11 07:27:00,72.2,72.3,29.84,WSW,247,4.4,10.5,100,0.00,,,0.00,Rainwise IP-100,2013-07-11 11:27:00,
2013-07-11 07:32:00,72.3,72.3,29.84,SSW,202,4.0,7.5,100,0.00,,,0.00,Rainwise IP-100,2013-07-11 11:32:00,
2013-07-11 07:37:00,72.4,72.3,29.85,SSW,202,6.3,9.8,100,0.00,,,0.00,Rainwise IP-100,2013-07-11 11:37:00,
2013-07-11 07:42:00,72.5,72.7,29.85,WSW,247,4.7,11.0,100,0.00,,,0.00,Rainwise IP-100,2013-07-11 11:42:00,
2013-07-11 07:47:00,72.4,72.3,29.86,WSW,247,3.0,9.8,100,0.00,,,0.00,Rainwise IP-100,2013-07-11 11:47:00,
2013-07-11 07:52:00,72.4,72.3,29.85,SSW,202,3.7,11.2,100,0.00,,,0.00,Rainwise IP-100,2013-07-11 11:52:00,
2013-07-11 07:57:00,72.4,72.3,29.86,SW,225,5.6,11.4,100,0.00,,,0.00,Rainwise IP-100,2013-07-11 11:57:00,
2013-07-11 08:02:00,72.5,72.7,29.86,South,180,4.4,12.6,100,0.00,,,0.00,Rainwise IP-100,2013-07-11 12:02:00,
2013-07-11 08:07:00,72.5,72.7,29.86,SSW,202,8.9,9.8,100,0.00,,,0.00,Rainwise IP-100,2013-07-11 12:07:00,
2013-07-11 08:13:00,72.4,72.0,29.85,WSW,247,2.6,9.6,99,0.00,,,0.00,Rainwise IP-100,2013-07-11 12:13:00,
2013-07-11 08:18:00,72.3,72.0,29.85,SSW,202,2.8,6.8,99,0.06,,,0.01,Rainwise IP-100,2013-07-11 12:18:00,
2013-07-11 08:23:00,72.1,71.7,29.85,WSW,247,1.2,6.5,99,0.12,,,0.02,Rainwise IP-100,2013-07-11 12:23:00,
2013-07-11 08:28:00,71.9,71.7,29.85,WNW,292,3.3,6.1,99,0.06,,,0.02,Rainwise IP-100,2013-07-11 12:28:00,
2013-07-11 08:33:00,71.8,71.7,29.84,WSW,247,2.6,4.7,100,0.00,,,0.02,Rainwise IP-100,2013-07-11 12:33:00,
2013-07-11 08:38:00,71.7,71.7,29.84,SSW,202,1.9,3.7,100,0.00,,,0.02,Rainwise IP-100,2013-07-11 12:38:00,
2013-07-11 08:43:00,71.7,71.7,29.84,SW,225,1.9,2.8,100,0.00,,,0.02,Rainwise IP-100,2013-07-11 12:43:00,
2013-07-11 08:48:00,71.9,72.0,29.84,SW,225,1.2,3.0,100,0.00,,,0.02,Rainwise IP-100,2013-07-11 12:48:00,
2013-07-11 08:53:00,72.0,72.0,29.84,WSW,247,1.6,3.7,100,0.00,,,0.02,Rainwise IP-100,2013-07-11 12:53:00,
2013-07-11 08:58:00,72.1,72.0,29.84,South,180,5.8,7.7,100,0.00,,,0.02,Rainwise IP-100,2013-07-11 12:58:00,
2013-07-11 09:03:00,72.1,72.0,29.84,SSW,202,3.3,10.5,100,0.00,,,0.02,Rainwise IP-100,2013-07-11 13:03:00,
2013-07-11 09:08:00,72.0,72.0,29.84,SW,225,3.5,10.5,100,0.00,,,0.02,Rainwise IP-100,2013-07-11 13:08:00,
2013-07-11 09:13:00,71.9,71.7,29.84,South,180,3.5,7.2,99,0.00,,,0.02,Rainwise IP-100,2013-07-11 13:13:00,
2013-07-11 09:18:00,72.1,71.7,29.84,WSW,247,7.0,8.2,99,0.00,,,0.02,Rainwise IP-100,2013-07-11 13:18:00,
2013-07-11 09:23:00,72.5,72.3,29.84,SSW,202,2.6,7.7,99,0.00,,,0.02,Rainwise IP-100,2013-07-11 13:23:00,
2013-07-11 09:28:00,73.0,72.7,29.84,South,180,2.6,9.1,99,0.00,,,0.02,Rainwise IP-100,2013-07-11 13:28:00,
2013-07-11 09:33:00,73.4,72.7,29.84,West,270,7.0,10.7,98,0.00,,,0.02,Rainwise IP-100,2013-07-11 13:33:00,
2013-07-11 09:38:00,73.6,73.0,29.84,WSW,247,10.5,10.7,98,0.00,,,0.02,Rainwise IP-100,2013-07-11 13:38:00,
2013-07-11 09:43:00,73.6,72.7,29.84,SSW,202,7.9,10.7,97,0.00,,,0.02,Rainwise IP-100,2013-07-11 13:43:00,
2013-07-11 09:48:00,73.5,72.7,29.84,SW,225,3.5,10.3,97,0.00,,,0.02,Rainwise IP-100,2013-07-11 13:48:00,
2013-07-11 09:53:00,73.3,72.7,29.84,WSW,247,4.2,9.1,97,0.00,,,0.02,Rainwise IP-100,2013-07-11 13:53:00,
2013-07-11 09:58:00,73.2,72.7,29.84,South,180,2.8,9.1,97,0.00,,,0.02,Rainwise IP-100,2013-07-11 13:58:00,
2013-07-11 10:03:00,73.0,72.3,29.85,SSW,202,2.6,11.7,97,0.00,,,0.02,Rainwise IP-100,2013-07-11 14:03:00,
2013-07-11 10:08:00,72.8,72.0,29.85,SSW,202,11.9,11.9,97,0.00,,,0.02,Rainwise IP-100,2013-07-11 14:08:00,
2013-07-11 10:13:00,72.6,72.0,29.86,WSW,247,4.4,11.9,97,0.00,,,0.02,Rainwise IP-100,2013-07-11 14:13:00,
2013-07-11 10:18:00,72.4,71.7,29.87,WNW,292,5.6,11.9,97,0.06,,,0.03,Rainwise IP-100,2013-07-11 14:18:00,
2013-07-11 10:23:00,72.2,71.7,29.87,West,270,5.4,14.7,97,0.12,,,0.04,Rainwise IP-100,2013-07-11 14:23:00,
2013-07-11 10:28:00,72.0,71.3,29.86,SSW,202,7.2,16.6,97,0.66,,,0.14,Rainwise IP-100,2013-07-11 14:28:00,
2013-07-11 10:33:00,71.7,71.0,29.85,NNW,337,4.7,14.5,98,0.84,,,0.18,Rainwise IP-100,2013-07-11 14:33:00,
2013-07-11 10:38:00,71.5,71.0,29.84,NNW,337,4.0,11.0,98,0.30,,,0.19,Rainwise IP-100,2013-07-11 14:38:00,
2013-07-11 10:43:00,71.6,71.0,29.84,NNE,22,4.2,11.0,98,0.06,,,0.19,Rainwise IP-100,2013-07-11 14:43:00,
2013-07-11 10:48:00,71.9,71.7,29.85,NW,315,1.9,11.0,99,0.00,,,0.19,Rainwise IP-100,2013-07-11 14:48:00,
2013-07-11 10:53:00,72.2,72.0,29.84,NW,315,0.0,7.5,99,0.00,,,0.19,Rainwise IP-100,2013-07-11 14:53:00,
2013-07-11 10:58:00,72.3,72.0,29.86,SW,225,4.2,5.1,99,0.00,,,0.19,Rainwise IP-100,2013-07-11 14:58:00,
2013-07-11 11:03:00,72.4,72.0,29.86,West,270,0.0,4.4,99,0.00,,,0.19,Rainwise IP-100,2013-07-11 15:03:00,
2013-07-11 11:08:00,72.6,72.7,29.87,SW,225,1.4,3.7,100,0.00,,,0.19,Rainwise IP-100,2013-07-11 15:08:00,
2013-07-11 11:13:00,72.8,72.7,29.87,SSW,202,3.0,3.0,100,0.00,,,0.19,Rainwise IP-100,2013-07-11 15:13:00,
2013-07-11 11:18:00,73.1,73.0,29.86,SSW,202,2.3,4.4,100,0.00,,,0.19,Rainwise IP-100,2013-07-11 15:18:00,
2013-07-11 11:23:00,73.1,73.0,29.86,SSW,202,2.8,4.4,100,0.00,,,0.19,Rainwise IP-100,2013-07-11 15:23:00,
2013-07-11 11:28:00,73.1,73.0,29.86,SSE,157,2.6,3.5,100,0.00,,,0.19,Rainwise IP-100,2013-07-11 15:28:00,
2013-07-11 11:33:00,72.9,73.0,29.86,WSW,247,2.1,3.7,100,0.00,,,0.19,Rainwise IP-100,2013-07-11 15:33:00,
2013-07-11 11:38:00,73.0,73.0,29.86,South,180,2.8,4.9,100,0.00,,,0.19,Rainwise IP-100,2013-07-11 15:38:00,
2013-07-11 11:43:00,73.2,73.3,29.86,WSW,247,2.3,4.2,100,0.00,,,0.19,Rainwise IP-100,2013-07-11 15:43:00,
2013-07-11 11:48:00,73.6,73.7,29.86,SSW,202,1.6,3.3,100,0.00,,,0.19,Rainwise IP-100,2013-07-11 15:48:00,
2013-07-11 11:53:00,73.8,73.7,29.86,SW,225,0.0,3.3,100,0.00,,,0.19,Rainwise IP-100,2013-07-11 15:53:00,
2013-07-11 11:58:00,74.2,74.3,29.86,SSW,202,3.0,4.0,100,0.00,,,0.19,Rainwise IP-100,2013-07-11 15:58:00,
2013-07-11 12:03:00,74.9,74.7,29.86,South,180,3.0,3.7,99,0.00,,,0.19,Rainwise IP-100,2013-07-11 16:03:00,
2013-07-11 12:08:00,75.4,74.7,29.86,SSE,157,2.6,4.0,98,0.00,,,0.19,Rainwise IP-100,2013-07-11 16:08:00,
2013-07-11 12:13:00,75.7,74.3,29.85,SSW,202,2.1,3.7,97,0.00,,,0.19,Rainwise IP-100,2013-07-11 16:13:00,
2013-07-11 12:18:00,76.1,74.3,29.86,WNW,292,2.8,4.0,96,0.00,,,0.19,Rainwise IP-100,2013-07-11 16:18:00,
2013-07-11 12:23:00,76.6,74.7,29.86,WSW,247,0.0,6.5,95,0.00,,,0.19,Rainwise IP-100,2013-07-11 16:23:00,
2013-07-11 12:28:00,76.9,75.0,29.86,SW,225,3.3,4.7,94,0.00,,,0.19,Rainwise IP-100,2013-07-11 16:28:00,
2013-07-11 12:33:00,77.2,74.7,29.86,SSW,202,1.9,6.5,92,0.00,,,0.19,Rainwise IP-100,2013-07-11 16:33:00,
2013-07-11 12:38:00,77.2,74.3,29.86,South,180,3.5,7.2,91,0.00,,,0.19,Rainwise IP-100,2013-07-11 16:38:00,
2013-07-11 12:43:00,77.2,74.3,29.86,SW,225,4.2,6.8,90,0.00,,,0.19,Rainwise IP-100,2013-07-11 16:43:00,
2013-07-11 12:48:00,77.3,74.0,29.87,SW,225,4.9,5.6,89,0.00,,,0.19,Rainwise IP-100,2013-07-11 16:48:00,
2013-07-11 12:53:00,77.3,74.0,29.87,SSW,202,3.7,6.5,89,0.00,,,0.19,Rainwise IP-100,2013-07-11 16:53:00,
2013-07-11 12:58:00,77.2,74.0,29.87,SSW,202,3.7,6.5,89,0.00,,,0.19,Rainwise IP-100,2013-07-11 16:58:00,
2013-07-11 13:03:00,77.2,74.0,29.87,SW,225,2.8,5.6,89,0.00,,,0.19,Rainwise IP-100,2013-07-11 17:03:00,
2013-07-11 13:08:00,77.1,73.7,29.87,South,180,5.6,8.4,89,0.00,,,0.19,Rainwise IP-100,2013-07-11 17:08:00,
2013-07-11 13:13:00,76.8,73.3,29.87,SSW,202,3.0,9.1,89,0.00,,,0.19,Rainwise IP-100,2013-07-11 17:13:00,
2013-07-11 13:18:00,76.5,73.3,29.87,South,180,2.6,7.9,90,0.00,,,0.19,Rainwise IP-100,2013-07-11 17:18:00,
2013-07-11 13:23:00,76.2,73.3,29.87,SW,225,6.3,10.7,91,0.00,,,0.19,Rainwise IP-100,2013-07-11 17:23:00,
2013-07-11 13:28:00,75.9,73.0,29.86,SW,225,4.4,9.3,91,0.00,,,0.19,Rainwise IP-100,2013-07-11 17:28:00,
2013-07-11 13:33:00,75.6,72.7,29.87,South,180,2.8,8.4,91,0.00,,,0.19,Rainwise IP-100,2013-07-11 17:33:00,
2013-07-11 13:38:00,75.5,73.0,29.86,SSW,202,3.3,6.8,92,0.00,,,0.19,Rainwise IP-100,2013-07-11 17:38:00,
2013-07-11 13:43:00,75.7,72.7,29.86,South,180,7.5,7.5,91,0.00,,,0.19,Rainwise IP-100,2013-07-11 17:43:00,
2013-07-11 13:48:00,76.0,73.0,29.86,South,180,5.8,7.9,91,0.00,,,0.19,Rainwise IP-100,2013-07-11 17:48:00,
2013-07-11 13:51:00,76.1,73.0,29.86,SSW,202,5.8,7.2,91,0.00,,,0.19,Rainwise IP-100,2013-07-11 17:51:00,
2013-07-11 13:56:00,76.3,73.0,29.85,SSW,202,1.4,8.2,90,0.00,,,0.19,Rainwise IP-100,2013-07-11 17:56:00,
2013-07-11 14:01:00,76.3,72.7,29.85,SSW,202,3.5,5.8,89,0.00,,,0.19,Rainwise IP-100,2013-07-11 18:01:00,
2013-07-11 14:06:00,76.1,72.7,29.85,SSW,202,2.8,6.5,90,0.00,,,0.19,Rainwise IP-100,2013-07-11 18:06:00,
2013-07-11 14:11:00,75.7,72.3,29.85,South,180,2.1,7.0,90,0.00,,,0.19,Rainwise IP-100,2013-07-11 18:11:00,
2013-07-11 14:16:00,75.4,73.0,29.85,SSW,202,3.3,7.5,92,0.00,,,0.19,Rainwise IP-100,2013-07-11 18:16:00,
2013-07-11 14:21:00,74.9,73.0,29.85,South,180,4.4,6.3,93,0.00,,,0.19,Rainwise IP-100,2013-07-11 18:21:00,
2013-07-11 14:26:00,74.7,72.7,29.85,South,180,1.9,4.9,93,0.00,,,0.19,Rainwise IP-100,2013-07-11 18:26:00,
2013-07-11 14:31:00,74.5,73.0,29.85,WSW,247,2.3,6.8,94,0.00,,,0.19,Rainwise IP-100,2013-07-11 18:31:00,
2013-07-11 14:36:00,74.3,72.7,29.85,South,180,6.5,6.5,94,0.00,,,0.19,Rainwise IP-100,2013-07-11 18:36:00,
2013-07-11 14:41:00,74.2,73.0,29.86,SSW,202,4.2,7.5,95,0.00,,,0.19,Rainwise IP-100,2013-07-11 18:41:00,
2013-07-11 14:46:00,74.1,72.7,29.85,SW,225,3.0,5.6,95,0.00,,,0.19,Rainwise IP-100,2013-07-11 18:46:00,
2013-07-11 14:51:00,74.2,73.3,29.85,SW,225,3.3,7.2,96,0.00,,,0.19,Rainwise IP-100,2013-07-11 18:51:00,
2013-07-11 14:56:00,74.2,73.3,29.85,SSW,202,4.7,7.7,96,0.00,,,0.19,Rainwise IP-100,2013-07-11 18:56:00,
2013-07-11 15:01:00,74.2,73.3,29.85,SSE,157,5.4,6.8,96,0.00,,,0.19,Rainwise IP-100,2013-07-11 19:01:00,
2013-07-11 15:06:00,74.3,73.3,29.84,SSW,202,2.8,7.0,96,0.00,,,0.19,Rainwise IP-100,2013-07-11 19:06:00,
2013-07-11 15:11:00,74.6,73.7,29.85,South,180,4.4,7.5,96,0.00,,,0.19,Rainwise IP-100,2013-07-11 19:11:00,
2013-07-11 15:16:00,74.9,73.7,29.85,SSW,202,3.0,7.9,96,0.00,,,0.19,Rainwise IP-100,2013-07-11 19:16:00,
2013-07-11 15:21:00,75.0,73.7,29.84,SSW,202,5.8,9.8,96,0.06,,,0.20,Rainwise IP-100,2013-07-11 19:21:00,
2013-07-11 15:26:00,74.9,73.7,29.84,SSW,202,9.3,9.3,96,0.06,,,0.20,Rainwise IP-100,2013-07-11 19:26:00,
2013-07-11 15:31:00,74.5,73.7,29.84,SSW,202,4.4,9.3,96,0.00,,,0.20,Rainwise IP-100,2013-07-11 19:31:00,
2013-07-11 15:36:00,74.3,73.3,29.84,SSW,202,4.2,8.9,96,0.00,,,0.20,Rainwise IP-100,2013-07-11 19:36:00,
2013-07-11 15:41:00,74.3,73.3,29.84,South,180,4.7,7.9,96,0.00,,,0.20,Rainwise IP-100,2013-07-11 19:41:00,
2013-07-11 15:46:00,74.2,73.3,29.85,WSW,247,2.8,6.8,96,0.00,,,0.20,Rainwise IP-100,2013-07-11 19:46:00,
2013-07-11 15:51:00,74.0,73.0,29.85,SSW,202,3.7,7.5,97,0.00,,,0.20,Rainwise IP-100,2013-07-11 19:51:00,
2013-07-11 15:56:00,73.7,72.7,29.85,WSW,247,3.3,8.4,97,0.00,,,0.20,Rainwise IP-100,2013-07-11 19:56:00,
2013-07-11 16:01:00,73.5,72.7,29.84,SSW,202,2.6,6.5,97,0.00,,,0.20,Rainwise IP-100,2013-07-11 20:01:00,
2013-07-11 16:06:00,73.5,72.7,29.84,SSW,202,4.0,6.1,97,0.00,,,0.20,Rainwise IP-100,2013-07-11 20:06:00,
2013-07-11 16:11:00,73.5,73.0,29.84,SSE,157,3.7,6.5,98,0.00,,,0.20,Rainwise IP-100,2013-07-11 20:11:00,
2013-07-11 16:16:00,73.4,72.7,29.85,SW,225,4.0,7.0,98,0.00,,,0.20,Rainwise IP-100,2013-07-11 20:16:00,
2013-07-11 16:21:00,73.3,72.7,29.86,SSW,202,2.1,6.8,98,0.00,,,0.20,Rainwise IP-100,2013-07-11 20:21:00,
2013-07-11 16:26:00,73.3,72.7,29.86,SW,225,2.1,6.5,98,0.00,,,0.20,Rainwise IP-100,2013-07-11 20:26:00,
2013-07-11 16:31:00,73.3,72.7,29.86,SSW,202,6.8,7.0,98,0.00,,,0.20,Rainwise IP-100,2013-07-11 20:31:00,
2013-07-11 16:36:00,73.1,72.3,29.85,South,180,2.6,7.9,98,0.00,,,0.20,Rainwise IP-100,2013-07-11 20:36:00,
2013-07-11 16:41:00,73.0,72.3,29.86,SSW,202,4.2,8.2,98,0.00,,,0.20,Rainwise IP-100,2013-07-11 20:41:00,
2013-07-11 16:46:00,72.8,72.0,29.87,SW,225,4.9,6.3,98,0.00,,,0.20,Rainwise IP-100,2013-07-11 20:46:00,
2013-07-11 16:50:00,72.8,72.0,29.86,WSW,247,4.0,7.0,98,0.00,,,0.20,Rainwise IP-100,2013-07-11 20:50:00,
2013-07-11 16:55:00,72.7,72.0,29.84,South,180,4.0,8.6,98,0.00,,,0.20,Rainwise IP-100,2013-07-11 20:55:00,
2013-07-11 17:00:00,72.7,72.3,29.85,South,180,5.1,9.6,99,0.00,,,0.20,Rainwise IP-100,2013-07-11 21:00:00,
2013-07-11 17:05:00,72.8,72.3,29.84,SW,225,4.2,7.0,99,0.00,,,0.20,Rainwise IP-100,2013-07-11 21:05:00,
2013-07-11 17:10:00,72.8,72.3,29.85,SSW,202,2.6,6.1,99,0.00,,,0.20,Rainwise IP-100,2013-07-11 21:10:00,
2013-07-11 17:15:00,72.8,72.3,29.85,SW,225,3.3,6.3,99,0.00,,,0.20,Rainwise IP-100,2013-07-11 21:15:00,
2013-07-11 17:20:00,72.9,72.7,29.85,SW,225,2.8,5.1,99,0.00,,,0.20,Rainwise IP-100,2013-07-11 21:20:00,
2013-07-11 17:25:00,73.0,72.7,29.85,SSW,202,2.6,5.8,99,0.00,,,0.20,Rainwise IP-100,2013-07-11 21:25:00,
2013-07-11 17:30:00,72.9,72.7,29.85,SW,225,1.9,7.9,99,0.00,,,0.20,Rainwise IP-100,2013-07-11 21:30:00,
2013-07-11 17:35:00,72.8,72.3,29.85,SSW,202,1.4,6.1,99,0.00,,,0.20,Rainwise IP-100,2013-07-11 21:35:00,
2013-07-11 17:40:00,72.6,72.3,29.86,WSW,247,1.4,5.6,99,0.00,,,0.20,Rainwise IP-100,2013-07-11 21:40:00,
2013-07-11 17:45:00,72.4,72.0,29.85,SSW,202,3.3,6.3,99,0.00,,,0.20,Rainwise IP-100,2013-07-11 21:45:00,
2013-07-11 17:50:00,72.4,72.0,29.85,SSW,202,5.1,5.8,99,0.00,,,0.20,Rainwise IP-100,2013-07-11 21:50:00,
2013-07-11 17:55:00,72.3,72.0,29.85,SSW,202,4.0,6.5,99,0.00,,,0.20,Rainwise IP-100,2013-07-11 21:55:00,
2013-07-11 18:00:00,72.3,72.0,29.85,WSW,247,2.1,7.2,99,0.00,,,0.20,Rainwise IP-100,2013-07-11 22:00:00,
2013-07-11 18:05:00,72.4,72.0,29.86,SSW,202,2.8,4.7,99,0.00,,,0.20,Rainwise IP-100,2013-07-11 22:05:00,
2013-07-11 18:10:00,72.3,72.0,29.86,SSW,202,3.3,6.3,99,0.00,,,0.20,Rainwise IP-100,2013-07-11 22:10:00,
2013-07-11 18:15:00,72.2,72.0,29.86,SSW,202,1.9,7.0,99,0.00,,,0.20,Rainwise IP-100,2013-07-11 22:15:00,
2013-07-11 18:20:00,72.2,72.0,29.86,SW,225,5.1,8.2,99,0.00,,,0.20,Rainwise IP-100,2013-07-11 22:20:00,
2013-07-11 18:25:00,72.3,72.0,29.86,SSW,202,1.6,7.0,99,0.00,,,0.20,Rainwise IP-100,2013-07-11 22:25:00,
2013-07-11 18:30:00,72.3,72.0,29.87,SW,225,3.5,4.9,99,0.00,,,0.20,Rainwise IP-100,2013-07-11 22:30:00,
2013-07-11 18:35:00,72.2,72.0,29.87,SW,225,3.3,6.8,99,0.00,,,0.20,Rainwise IP-100,2013-07-11 22:35:00,
2013-07-11 18:40:00,72.2,72.0,29.87,South,180,3.0,6.3,99,0.00,,,0.20,Rainwise IP-100,2013-07-11 22:40:00,
2013-07-11 18:45:00,72.1,71.7,29.87,SSW,202,4.0,5.6,99,0.00,,,0.20,Rainwise IP-100,2013-07-11 22:45:00,
2013-07-11 18:50:00,72.0,72.0,29.87,SW,225,1.9,5.1,100,0.00,,,0.20,Rainwise IP-100,2013-07-11 22:50:00,
2013-07-11 18:55:00,72.0,72.0,29.87,South,180,4.2,7.5,100,0.00,,,0.20,Rainwise IP-100,2013-07-11 22:55:00,
2013-07-11 19:00:00,72.0,72.0,29.87,SSW,202,1.6,6.5,100,0.00,,,0.20,Rainwise IP-100,2013-07-11 23:00:00,
2013-07-11 19:05:00,71.8,71.7,29.87,SW,225,2.8,9.1,100,0.00,,,0.20,Rainwise IP-100,2013-07-11 23:05:00,
2013-07-11 19:10:00,71.7,71.7,29.87,SW,225,2.1,4.7,100,0.00,,,0.20,Rainwise IP-100,2013-07-11 23:10:00,
2013-07-11 19:15:00,71.6,71.7,29.87,SSW,202,1.6,5.1,100,0.00,,,0.20,Rainwise IP-100,2013-07-11 23:15:00,
2013-07-11 19:20:00,71.6,71.7,29.87,SSW,202,1.6,5.6,100,0.00,,,0.20,Rainwise IP-100,2013-07-11 23:20:00,
2013-07-11 19:25:00,71.6,71.7,29.88,SSW,202,1.2,4.4,100,0.00,,,0.20,Rainwise IP-100,2013-07-11 23:25:00,
2013-07-11 19:30:00,71.6,71.7,29.88,SSW,202,2.3,3.0,100,0.00,,,0.20,Rainwise IP-100,2013-07-11 23:30:00,
2013-07-11 19:35:00,71.6,71.7,29.88,WSW,247,2.3,3.5,100,0.00,,,0.20,Rainwise IP-100,2013-07-11 23:35:00,
2013-07-11 19:40:00,71.6,71.7,29.87,SSW,202,1.4,2.8,100,0.00,,,0.20,Rainwise IP-100,2013-07-11 23:40:00,
2013-07-11 19:45:00,71.6,71.7,29.88,SSW,202,3.0,3.7,100,0.00,,,0.20,Rainwise IP-100,2013-07-11 23:45:00,
2013-07-11 19:50:00,71.5,71.7,29.88,SW,225,3.7,4.4,100,0.00,,,0.20,Rainwise IP-100,2013-07-11 23:50:00,
2013-07-11 19:55:00,71.4,71.3,29.87,SSW,202,2.1,4.0,100,0.00,,,0.20,Rainwise IP-100,2013-07-11 23:55:00,
2013-07-11 20:00:00,71.3,71.3,29.88,SSW,202,3.0,4.2,100,0.00,,,0.20,Rainwise IP-100,2013-07-12 00:00:00,
2013-07-11 20:05:00,71.2,71.3,29.88,SW,225,2.3,3.5,100,0.00,,,0.20,Rainwise IP-100,2013-07-12 00:05:00,
2013-07-11 20:10:00,71.0,71.0,29.88,WSW,247,0.0,3.5,100,0.00,,,0.20,Rainwise IP-100,2013-07-12 00:10:00,
2013-07-11 20:15:00,70.9,71.0,29.88,SW,225,0.0,3.5,100,0.00,,,0.20,Rainwise IP-100,2013-07-12 00:15:00,
2013-07-11 20:20:00,70.8,71.0,29.88,West,270,1.6,2.8,100,0.00,,,0.20,Rainwise IP-100,2013-07-12 00:20:00,
2013-07-11 20:25:00,70.8,71.0,29.88,SSW,202,2.1,2.8,100,0.00,,,0.20,Rainwise IP-100,2013-07-12 00:25:00,
2013-07-11 20:30:00,70.7,70.5,29.88,SW,225,1.4,3.5,100,0.00,,,0.20,Rainwise IP-100,2013-07-12 00:30:00,
2013-07-11 20:35:00,70.7,70.5,29.88,West,270,0.0,2.6,100,0.00,,,0.20,Rainwise IP-100,2013-07-12 00:35:00,
2013-07-11 20:40:00,70.7,70.5,29.88,West,270,1.6,1.9,100,0.00,,,0.20,Rainwise IP-100,2013-07-12 00:40:00,
2013-07-11 20:45:00,70.6,70.5,29.88,West,270,0.0,2.1,100,0.00,,,0.20,Rainwise IP-100,2013-07-12 00:45:00,
2013-07-11 20:50:00,70.5,70.5,29.88,West,270,0.0,0.0,100,0.00,,,0.20,Rainwise IP-100,2013-07-12 00:50:00,
2013-07-11 20:55:00,70.4,70.5,29.88,SW,225,1.2,3.3,100,0.00,,,0.20,Rainwise IP-100,2013-07-12 00:55:00,
2013-07-11 21:00:00,70.3,70.5,29.89,SW,225,0.0,2.1,100,0.00,,,0.20,Rainwise IP-100,2013-07-12 01:00:00,
2013-07-11 21:05:00,70.3,70.5,29.88,SW,225,0.0,0.0,100,0.00,,,0.20,Rainwise IP-100,2013-07-12 01:05:00,
2013-07-11 21:10:00,70.2,70.0,29.89,SW,225,0.0,0.0,100,0.00,,,0.20,Rainwise IP-100,2013-07-12 01:10:00,
2013-07-11 21:15:00,70.2,70.0,29.89,SW,225,0.0,1.4,100,0.00,,,0.20,Rainwise IP-100,2013-07-12 01:15:00,
2013-07-11 21:20:00,70.3,70.5,29.89,South,180,0.0,2.1,100,0.00,,,0.20,Rainwise IP-100,2013-07-12 01:20:00,
2013-07-11 21:25:00,70.4,70.5,29.89,South,180,0.0,0.0,100,0.00,,,0.20,Rainwise IP-100,2013-07-12 01:25:00,
2013-07-11 21:30:00,70.3,70.5,29.89,SSW,202,1.4,2.1,100,0.00,,,0.20,Rainwise IP-100,2013-07-12 01:30:00,
2013-07-11 21:35:00,70.2,70.0,29.89,SSW,202,1.9,2.3,100,0.00,,,0.20,Rainwise IP-100,2013-07-12 01:35:00,
2013-07-11 21:41:00,70.3,70.5,29.90,South,180,0.0,3.3,100,0.00,,,0.20,Rainwise IP-100,2013-07-12 01:41:00,
2013-07-11 21:46:00,70.4,70.5,29.90,SSW,202,0.0,2.6,100,0.00,,,0.20,Rainwise IP-100,2013-07-12 01:46:00,
2013-07-11 21:51:00,70.5,70.5,29.89,SSW,202,1.2,2.1,100,0.00,,,0.20,Rainwise IP-100,2013-07-12 01:51:00,
2013-07-11 21:56:00,70.6,70.5,29.89,SSW,202,1.4,1.9,100,0.00,,,0.20,Rainwise IP-100,2013-07-12 01:56:00,
2013-07-11 22:01:00,70.5,70.5,29.89,SSW,202,1.2,2.3,100,0.00,,,0.20,Rainwise IP-100,2013-07-12 02:01:00,
2013-07-11 22:06:00,70.5,70.5,29.90,SSW,202,0.0,1.6,100,0.00,,,0.20,Rainwise IP-100,2013-07-12 02:06:00,
2013-07-11 22:11:00,70.6,70.5,29.89,SSW,202,1.4,1.9,100,0.00,,,0.20,Rainwise IP-100,2013-07-12 02:11:00,
2013-07-11 22:16:00,70.6,70.5,29.89,SSW,202,1.4,2.3,100,0.00,,,0.20,Rainwise IP-100,2013-07-12 02:16:00,
2013-07-11 22:21:00,70.5,70.5,29.90,SW,225,0.0,2.8,100,0.00,,,0.20,Rainwise IP-100,2013-07-12 02:21:00,
2013-07-11 22:26:00,70.5,70.5,29.90,SW,225,1.4,2.1,100,0.00,,,0.20,Rainwise IP-100,2013-07-12 02:26:00,
2013-07-11 22:31:00,70.5,70.5,29.90,SW,225,2.1,2.8,100,0.00,,,0.20,Rainwise IP-100,2013-07-12 02:31:00,
2013-07-11 22:36:00,70.4,70.5,29.90,SW,225,1.2,3.0,100,0.00,,,0.20,Rainwise IP-100,2013-07-12 02:36:00,
2013-07-11 22:41:00,70.3,70.5,29.90,SSW,202,1.4,2.6,100,0.00,,,0.20,Rainwise IP-100,2013-07-12 02:41:00,
2013-07-11 22:46:00,70.3,70.5,29.90,SW,225,1.4,2.3,100,0.00,,,0.20,Rainwise IP-100,2013-07-12 02:46:00,
2013-07-11 22:51:00,70.2,70.0,29.90,WSW,247,0.0,2.8,100,0.00,,,0.20,Rainwise IP-100,2013-07-12 02:51:00,
2013-07-11 22:56:00,70.1,70.0,29.90,WSW,247,1.2,1.9,100,0.00,,,0.20,Rainwise IP-100,2013-07-12 02:56:00,
2013-07-11 23:01:00,70.0,70.0,29.90,SW,225,0.0,2.6,100,0.00,,,0.20,Rainwise IP-100,2013-07-12 03:01:00,
2013-07-11 23:06:00,70.0,70.0,29.90,SSW,202,1.6,3.0,100,0.00,,,0.20,Rainwise IP-100,2013-07-12 03:06:00,
2013-07-11 23:11:00,69.9,70.0,29.90,SSW,202,2.1,3.3,100,0.00,,,0.20,Rainwise IP-100,2013-07-12 03:11:00,
2013-07-11 23:16:00,69.8,69.7,29.90,SSW,202,1.4,3.5,100,0.00,,,0.20,Rainwise IP-100,2013-07-12 03:16:00,
2013-07-11 23:21:00,69.8,69.7,29.90,SSW,202,1.2,2.6,100,0.00,,,0.20,Rainwise IP-100,2013-07-12 03:21:00,
2013-07-11 23:26:00,69.8,69.7,29.90,SSW,202,1.4,2.8,100,0.00,,,0.20,Rainwise IP-100,2013-07-12 03:26:00,
2013-07-11 23:31:00,69.8,69.7,29.90,SSW,202,1.9,2.6,100,0.00,,,0.20,Rainwise IP-100,2013-07-12 03:31:00,
2013-07-11 23:36:00,69.8,69.7,29.90,WSW,247,1.6,2.3,100,0.00,,,0.20,Rainwise IP-100,2013-07-12 03:36:00,
2013-07-11 23:41:00,69.8,69.7,29.90,WSW,247,1.2,2.3,100,0.00,,,0.20,Rainwise IP-100,2013-07-12 03:41:00,
2013-07-11 23:46:00,69.8,69.7,29.90,SW,225,0.0,2.6,100,0.00,,,0.20,Rainwise IP-100,2013-07-12 03:46:00,
2013-07-11 23:51:00,69.8,69.7,29.90,WSW,247,0.0,2.1,100,0.00,,,0.20,Rainwise IP-100,2013-07-12 03:51:00,
2013-07-11 23:56:00,69.8,69.7,29.90,WSW,247,0.0,2.3,100,0.00,,,0.20,Rainwise IP-100,2013-07-12 03:56:00,